Time,TemperatureF,DewpointF,PressureIn,WindDirection,WindDirectionDegrees,WindSpeedMPH,WindSpeedGustMPH,Humidity,HourlyPrecipIn,Conditions,Clouds,dailyrainin,SoftwareType,DateUTC
2013-01-09 00:00:00,29.0,24.2,30.00,WSW,255,5.0,5.0,82,0.00,,,0.00,Wunderground v.1.15,2013-01-09 06:00:00,
2013-01-09 00:06:00,29.0,24.2,30.00,WSW,257,2.0,6.0,82,0.00,,,0.00,Wunderground v.1.15,2013-01-09 06:06:00,
2013-01-09 00:11:00,29.0,24.2,30.00,WSW,252,2.0,2.0,82,0.00,,,0.00,Wunderground v.1.15,2013-01-09 06:11:00,
2013-01-09 00:16:00,29.0,24.2,30.00,West,262,1.0,4.0,82,0.00,,,0.00,Wunderground v.1.15,2013-01-09 06:16:00,
2013-01-09 00:22:00,28.8,24.3,30.00,West,261,5.0,10.0,83,0.00,,,0.00,Wunderground v.1.15,2013-01-09 06:22:00,
2013-01-09 00:28:00,28.7,24.2,30.00,West,259,7.0,10.0,83,0.00,,,0.00,Wunderground v.1.15,2013-01-09 06:28:00,
2013-01-09 00:34:00,28.5,24.0,30.00,WSW,245,3.0,4.0,83,0.00,,,0.00,Wunderground v.1.15,2013-01-09 06:34:00,
2013-01-09 00:39:00,28.4,23.9,30.00,WSW,241,4.0,6.0,83,0.00,,,0.00,Wunderground v.1.15,2013-01-09 06:39:00,
2013-01-09 00:44:00,28.7,24.5,30.01,WSW,254,5.0,6.0,84,0.00,,,0.00,Wunderground v.1.15,2013-01-09 06:44:00,
2013-01-09 00:49:00,28.8,24.6,30.01,WSW,242,4.0,6.0,84,0.00,,,0.00,Wunderground v.1.15,2013-01-09 06:49:00,
2013-01-09 00:54:00,29.0,24.8,30.01,West,261,6.0,9.0,84,0.00,,,0.00,Wunderground v.1.15,2013-01-09 06:54:00,
2013-01-09 01:00:00,29.0,24.8,30.01,West,265,7.0,7.0,84,0.00,,,0.00,Wunderground v.1.15,2013-01-09 07:00:00,
2013-01-09 01:06:00,29.1,25.2,30.01,West,267,7.0,8.0,85,0.00,,,0.00,Wunderground v.1.15,2013-01-09 07:06:00,
2013-01-09 01:11:00,29.3,25.4,30.01,West,259,4.0,6.0,85,0.00,,,0.00,Wunderground v.1.15,2013-01-09 07:11:00,
2013-01-09 01:17:00,29.5,25.5,30.02,West,261,10.0,10.0,85,0.00,,,0.00,Wunderground v.1.15,2013-01-09 07:17:00,
2013-01-09 01:22:00,29.7,25.7,30.02,West,271,3.0,9.0,85,0.00,,,0.00,Wunderground v.1.15,2013-01-09 07:22:00,
2013-01-09 01:27:00,29.7,25.7,30.03,West,262,7.0,9.0,85,0.00,,,0.00,Wunderground v.1.15,2013-01-09 07:27:00,
2013-01-09 01:33:00,30.0,26.3,30.03,West,262,2.0,11.0,86,0.00,,,0.00,Wunderground v.1.15,2013-01-09 07:33:00,
2013-01-09 01:39:00,30.0,26.3,30.03,WSW,252,8.0,11.0,86,0.00,,,0.00,Wunderground v.1.15,2013-01-09 07:39:00,
2013-01-09 01:44:00,29.8,25.8,30.03,West,269,3.0,9.0,85,0.00,,,0.00,Wunderground v.1.15,2013-01-09 07:44:00,
2013-01-09 01:50:00,29.7,26.0,30.03,West,263,4.0,5.0,86,0.00,,,0.00,Wunderground v.1.15,2013-01-09 07:50:00,
2013-01-09 01:55:00,29.8,26.1,30.03,West,268,2.0,9.0,86,0.00,,,0.00,Wunderground v.1.15,2013-01-09 07:55:00,
2013-01-09 02:00:00,29.5,25.8,30.04,WNW,282,7.0,7.0,86,0.00,,,0.00,Wunderground v.1.15,2013-01-09 08:00:00,
2013-01-09 02:05:00,29.5,26.1,30.04,West,270,3.0,12.0,87,0.00,,,0.00,Wunderground v.1.15,2013-01-09 08:05:00,
2013-01-09 02:10:00,29.5,26.1,30.04,West,277,6.0,11.0,87,0.00,,,0.00,Wunderground v.1.15,2013-01-09 08:10:00,
2013-01-09 02:15:00,29.7,26.3,30.05,WNW,286,6.0,12.0,87,0.00,,,0.00,Wunderground v.1.15,2013-01-09 08:15:00,
2013-01-09 02:20:00,29.5,26.1,30.05,WNW,289,12.0,12.0,87,0.00,,,0.00,Wunderground v.1.15,2013-01-09 08:20:00,
2013-01-09 02:25:00,29.7,26.3,30.05,WSW,254,5.0,12.0,87,0.00,,,0.00,Wunderground v.1.15,2013-01-09 08:25:00,
2013-01-09 02:30:00,29.7,26.3,30.05,West,267,4.0,6.0,87,0.00,,,0.00,Wunderground v.1.15,2013-01-09 08:30:00,
2013-01-09 02:35:00,29.4,26.0,30.05,WNW,301,3.0,11.0,87,0.00,,,0.00,Wunderground v.1.15,2013-01-09 08:35:00,
2013-01-09 02:40:00,29.3,26.2,30.05,West,268,8.0,9.0,88,0.00,,,0.00,Wunderground v.1.15,2013-01-09 08:40:00,
2013-01-09 02:45:00,29.3,26.2,30.07,West,276,5.0,10.0,88,0.00,,,0.00,Wunderground v.1.15,2013-01-09 08:45:00,
2013-01-09 02:50:00,29.1,26.0,30.07,West,267,4.0,7.0,88,0.00,,,0.00,Wunderground v.1.15,2013-01-09 08:50:00,
2013-01-09 02:55:00,29.0,25.9,30.07,WSW,254,6.0,10.0,88,0.00,,,0.00,Wunderground v.1.15,2013-01-09 08:55:00,
2013-01-09 03:00:00,28.8,25.7,30.07,West,273,3.0,7.0,88,0.00,,,0.00,Wunderground v.1.15,2013-01-09 09:00:00,
2013-01-09 03:05:00,29.0,25.9,30.07,WSW,250,6.0,12.0,88,0.00,,,0.00,Wunderground v.1.15,2013-01-09 09:05:00,
2013-01-09 03:10:00,29.0,25.9,30.07,West,279,6.0,6.0,88,0.00,,,0.00,Wunderground v.1.15,2013-01-09 09:10:00,
2013-01-09 03:15:00,29.0,25.9,30.07,West,281,9.0,12.0,88,0.00,,,0.00,Wunderground v.1.15,2013-01-09 09:15:00,
2013-01-09 03:20:00,29.1,26.3,30.07,WSW,251,5.0,8.0,89,0.00,,,0.00,Wunderground v.1.15,2013-01-09 09:20:00,
2013-01-09 03:25:00,29.1,26.0,30.07,West,278,12.0,17.0,88,0.00,,,0.00,Wunderground v.1.15,2013-01-09 09:25:00,
2013-01-09 03:30:00,29.1,26.0,30.08,WNW,286,11.0,11.0,88,0.00,,,0.00,Wunderground v.1.15,2013-01-09 09:30:00,
2013-01-09 03:35:00,29.4,26.3,30.08,West,259,11.0,15.0,88,0.00,,,0.00,Wunderground v.1.15,2013-01-09 09:35:00,
2013-01-09 03:40:00,29.4,26.3,30.08,West,281,9.0,9.0,88,0.00,,,0.00,Wunderground v.1.15,2013-01-09 09:40:00,
2013-01-09 03:45:00,29.7,26.3,30.08,West,274,7.0,17.0,87,0.00,,,0.00,Wunderground v.1.15,2013-01-09 09:45:00,
2013-01-09 03:50:00,29.7,26.3,30.08,SW,236,9.0,10.0,87,0.00,,,0.00,Wunderground v.1.15,2013-01-09 09:50:00,
2013-01-09 03:55:00,29.5,25.8,30.08,West,269,4.0,13.0,86,0.00,,,0.00,Wunderground v.1.15,2013-01-09 09:55:00,
2013-01-09 04:00:00,29.8,26.4,30.09,West,270,4.0,13.0,87,0.00,,,0.00,Wunderground v.1.15,2013-01-09 10:00:00,
2013-01-09 04:06:00,30.1,26.4,30.09,West,270,3.0,13.0,86,0.00,,,0.00,Wunderground v.1.15,2013-01-09 10:06:00,
2013-01-09 04:11:00,30.4,26.4,30.09,WNW,283,5.0,13.0,85,0.00,,,0.00,Wunderground v.1.15,2013-01-09 10:11:00,
2013-01-09 04:16:00,30.9,26.9,30.10,West,268,10.0,16.0,85,0.00,,,0.00,Wunderground v.1.15,2013-01-09 10:16:00,
2013-01-09 04:21:00,31.0,26.7,30.10,West,279,7.0,14.0,84,0.00,,,0.00,Wunderground v.1.15,2013-01-09 10:21:00,
2013-01-09 04:26:00,31.2,26.9,30.10,West,281,7.0,19.0,84,0.00,,,0.00,Wunderground v.1.15,2013-01-09 10:26:00,
2013-01-09 04:31:00,31.0,26.7,30.11,WNW,283,9.0,15.0,84,0.00,,,0.00,Wunderground v.1.15,2013-01-09 10:31:00,
2013-01-09 04:36:00,31.0,26.4,30.11,West,266,13.0,16.0,83,0.00,,,0.00,Wunderground v.1.15,2013-01-09 10:36:00,
2013-01-09 04:41:00,31.0,26.7,30.11,West,281,12.0,17.0,84,0.00,,,0.00,Wunderground v.1.15,2013-01-09 10:41:00,
2013-01-09 04:46:00,31.0,26.7,30.11,West,267,7.0,17.0,84,0.00,,,0.00,Wunderground v.1.15,2013-01-09 10:46:00,
2013-01-09 04:51:00,30.9,26.6,30.11,WSW,257,3.0,12.0,84,0.00,,,0.00,Wunderground v.1.15,2013-01-09 10:51:00,
2013-01-09 04:56:00,30.7,26.7,30.11,West,279,5.0,13.0,85,0.00,,,0.00,Wunderground v.1.15,2013-01-09 10:56:00,
2013-01-09 05:01:00,30.9,26.9,30.11,West,266,3.0,13.0,85,0.00,,,0.00,Wunderground v.1.15,2013-01-09 11:01:00,
2013-01-09 05:06:00,31.0,26.7,30.11,WNW,286,3.0,17.0,84,0.00,,,0.00,Wunderground v.1.15,2013-01-09 11:06:00,
2013-01-09 05:11:00,31.2,26.9,30.11,West,267,7.0,16.0,84,0.00,,,0.00,Wunderground v.1.15,2013-01-09 11:11:00,
2013-01-09 05:16:00,31.2,26.6,30.11,WNW,284,2.0,16.0,83,0.00,,,0.00,Wunderground v.1.15,2013-01-09 11:16:00,
2013-01-09 05:21:00,31.2,26.3,30.11,WNW,286,2.0,12.0,82,0.00,,,0.00,Wunderground v.1.15,2013-01-09 11:21:00,
2013-01-09 05:26:00,31.0,26.1,30.11,West,275,6.0,12.0,82,0.00,,,0.00,Wunderground v.1.15,2013-01-09 11:26:00,
2013-01-09 05:31:00,31.2,26.0,30.11,WNW,293,10.0,14.0,81,0.00,,,0.00,Wunderground v.1.15,2013-01-09 11:31:00,
2013-01-09 05:36:00,31.3,25.8,30.11,West,280,6.0,17.0,80,0.00,,,0.00,Wunderground v.1.15,2013-01-09 11:36:00,
2013-01-09 05:41:00,31.3,25.5,30.11,WNW,298,10.0,13.0,79,0.00,,,0.00,Wunderground v.1.15,2013-01-09 11:41:00,
2013-01-09 05:46:00,31.2,25.4,30.11,West,277,14.0,17.0,79,0.00,,,0.00,Wunderground v.1.15,2013-01-09 11:46:00,
2013-01-09 05:51:00,30.7,25.0,30.11,West,274,9.0,11.0,79,0.00,,,0.00,Wunderground v.1.15,2013-01-09 11:51:00,
2013-01-09 05:56:00,30.6,24.9,30.11,WNW,285,10.0,15.0,79,0.00,,,0.00,Wunderground v.1.15,2013-01-09 11:56:00,
2013-01-09 06:01:00,30.3,24.6,30.12,WNW,287,11.0,15.0,79,0.00,,,0.00,Wunderground v.1.15,2013-01-09 12:01:00,
2013-01-09 06:06:00,30.1,24.4,30.12,NW,313,10.0,15.0,79,0.00,,,0.00,Wunderground v.1.15,2013-01-09 12:06:00,
2013-01-09 06:11:00,30.0,24.3,30.12,WNW,290,6.0,15.0,79,0.00,,,0.00,Wunderground v.1.15,2013-01-09 12:11:00,
2013-01-09 06:16:00,30.0,24.0,30.13,NW,312,6.0,15.0,78,0.00,,,0.00,Wunderground v.1.15,2013-01-09 12:16:00,
2013-01-09 06:21:00,29.8,23.8,30.13,WNW,303,12.0,14.0,78,0.00,,,0.00,Wunderground v.1.15,2013-01-09 12:21:00,
2013-01-09 06:26:00,29.5,23.5,30.13,NNW,346,7.0,14.0,78,0.00,,,0.00,Wunderground v.1.15,2013-01-09 12:26:00,
2013-01-09 06:31:00,29.0,23.0,30.13,WNW,295,4.0,9.0,78,0.00,,,0.00,Wunderground v.1.15,2013-01-09 12:31:00,
2013-01-09 06:36:00,28.7,23.0,30.13,NW,305,9.0,13.0,79,0.00,,,0.00,Wunderground v.1.15,2013-01-09 12:36:00,
2013-01-09 06:41:00,28.5,22.8,30.13,WNW,299,12.0,12.0,79,0.00,,,0.00,Wunderground v.1.15,2013-01-09 12:41:00,
2013-01-09 06:46:00,28.4,22.7,30.13,NW,304,9.0,16.0,79,0.00,,,0.00,Wunderground v.1.15,2013-01-09 12:46:00,
2013-01-09 06:52:00,28.4,22.7,30.13,WNW,296,8.0,12.0,79,0.00,,,0.00,Wunderground v.1.15,2013-01-09 12:52:00,
2013-01-09 06:57:00,28.4,22.7,30.13,WNW,298,12.0,14.0,79,0.00,,,0.00,Wunderground v.1.15,2013-01-09 12:57:00,
2013-01-09 07:02:00,28.2,22.2,30.14,NW,306,7.0,12.0,78,0.00,,,0.00,Wunderground v.1.15,2013-01-09 13:02:00,
2013-01-09 07:07:00,27.9,21.9,30.14,WNW,295,13.0,13.0,78,0.00,,,0.00,Wunderground v.1.15,2013-01-09 13:07:00,
2013-01-09 07:12:00,27.8,21.8,30.14,WNW,302,5.0,12.0,78,0.00,,,0.00,Wunderground v.1.15,2013-01-09 13:12:00,
2013-01-09 07:17:00,27.6,21.6,30.14,NW,317,4.0,12.0,78,0.00,,,0.00,Wunderground v.1.15,2013-01-09 13:17:00,
2013-01-09 07:22:00,27.8,21.8,30.14,WNW,288,3.0,10.0,78,0.00,,,0.00,Wunderground v.1.15,2013-01-09 13:22:00,
2013-01-09 07:27:00,27.8,21.5,30.15,NW,310,2.0,10.0,77,0.00,,,0.00,Wunderground v.1.15,2013-01-09 13:27:00,
2013-01-09 07:32:00,27.6,21.3,30.15,WNW,303,0.0,6.0,77,0.00,,,0.00,Wunderground v.1.15,2013-01-09 13:32:00,
2013-01-09 07:37:00,27.5,21.2,30.15,WNW,300,4.0,7.0,77,0.00,,,0.00,Wunderground v.1.15,2013-01-09 13:37:00,
2013-01-09 07:42:00,27.5,21.2,30.16,WNW,300,0.0,3.0,77,0.00,,,0.00,Wunderground v.1.15,2013-01-09 13:42:00,
2013-01-09 07:47:00,27.2,20.9,30.16,WNW,300,0.0,5.0,77,0.00,,,0.00,Wunderground v.1.15,2013-01-09 13:47:00,
2013-01-09 07:52:00,27.0,20.7,30.16,NW,325,2.0,4.0,77,0.00,,,0.00,Wunderground v.1.15,2013-01-09 13:52:00,
2013-01-09 07:57:00,26.7,20.5,30.18,West,269,0.0,4.0,77,0.00,,,0.00,Wunderground v.1.15,2013-01-09 13:57:00,
2013-01-09 08:02:00,26.7,20.8,30.18,WSW,250,1.0,4.0,78,0.00,,,0.00,Wunderground v.1.15,2013-01-09 14:02:00,
2013-01-09 08:07:00,26.9,21.0,30.18,WSW,242,0.0,5.0,78,0.00,,,0.00,Wunderground v.1.15,2013-01-09 14:07:00,
2013-01-09 08:12:00,26.7,20.8,30.18,WSW,242,3.0,3.0,78,0.00,,,0.00,Wunderground v.1.15,2013-01-09 14:12:00,
2013-01-09 08:17:00,26.7,20.8,30.18,WNW,283,3.0,8.0,78,0.00,,,0.00,Wunderground v.1.15,2013-01-09 14:17:00,
2013-01-09 08:22:00,27.0,21.1,30.18,WNW,295,1.0,8.0,78,0.00,,,0.00,Wunderground v.1.15,2013-01-09 14:22:00,
2013-01-09 08:27:00,27.3,21.3,30.18,WNW,291,5.0,9.0,78,0.00,,,0.00,Wunderground v.1.15,2013-01-09 14:27:00,
2013-01-09 08:32:00,27.3,21.3,30.18,WNW,297,2.0,6.0,78,0.00,,,0.00,Wunderground v.1.15,2013-01-09 14:32:00,
2013-01-09 08:37:00,27.0,21.1,30.18,NW,315,4.0,7.0,78,0.00,,,0.00,Wunderground v.1.15,2013-01-09 14:37:00,
2013-01-09 08:42:00,26.3,20.4,30.19,NNW,332,2.0,7.0,78,0.00,,,0.00,Wunderground v.1.15,2013-01-09 14:42:00,
2013-01-09 08:47:00,26.1,20.5,30.19,NW,321,2.0,7.0,79,0.00,,,0.00,Wunderground v.1.15,2013-01-09 14:47:00,
2013-01-09 08:52:00,26.4,20.8,30.19,WNW,288,3.0,7.0,79,0.00,,,0.00,Wunderground v.1.15,2013-01-09 14:52:00,
2013-01-09 08:57:00,26.6,21.0,30.20,WNW,286,1.0,9.0,79,0.00,,,0.00,Wunderground v.1.15,2013-01-09 14:57:00,
2013-01-09 09:02:00,26.9,21.3,30.20,WNW,292,7.0,7.0,79,0.00,,,0.00,Wunderground v.1.15,2013-01-09 15:02:00,
2013-01-09 09:08:00,27.2,21.2,30.20,West,275,1.0,7.0,78,0.00,,,0.00,Wunderground v.1.15,2013-01-09 15:08:00,
2013-01-09 09:13:00,27.6,21.6,30.21,WSW,255,3.0,4.0,78,0.00,,,0.00,Wunderground v.1.15,2013-01-09 15:13:00,
2013-01-09 09:18:00,28.1,21.8,30.21,WSW,254,0.0,5.0,77,0.00,,,0.00,Wunderground v.1.15,2013-01-09 15:18:00,
2013-01-09 09:23:00,28.7,22.1,30.21,WSW,249,2.0,3.0,76,0.00,,,0.00,Wunderground v.1.15,2013-01-09 15:23:00,
2013-01-09 09:28:00,29.1,22.2,30.25,South,184,0.0,4.0,75,0.00,,,0.00,Wunderground v.1.15,2013-01-09 15:28:00,
2013-01-09 09:33:00,29.5,22.2,30.25,South,184,0.0,2.0,74,0.00,,,0.00,Wunderground v.1.15,2013-01-09 15:33:00,
2013-01-09 09:38:00,29.5,21.6,30.25,South,184,4.0,6.0,72,0.00,,,0.00,Wunderground v.1.15,2013-01-09 15:38:00,
2013-01-09 09:43:00,29.1,21.5,30.26,SW,233,2.0,5.0,73,0.00,,,0.00,Wunderground v.1.15,2013-01-09 15:43:00,
2013-01-09 09:48:00,29.1,21.5,30.26,SW,218,3.0,5.0,73,0.00,,,0.00,Wunderground v.1.15,2013-01-09 15:48:00,
2013-01-09 09:53:00,29.4,21.8,30.26,SSW,197,3.0,5.0,73,0.00,,,0.00,Wunderground v.1.15,2013-01-09 15:53:00,
2013-01-09 09:58:00,30.0,22.1,30.27,SSW,203,0.0,9.0,72,0.00,,,0.00,Wunderground v.1.15,2013-01-09 15:58:00,
2013-01-09 10:03:00,30.4,21.8,30.27,South,187,0.0,6.0,70,0.00,,,0.00,Wunderground v.1.15,2013-01-09 16:03:00,
2013-01-09 10:08:00,30.7,22.1,30.27,South,187,3.0,6.0,70,0.00,,,0.00,Wunderground v.1.15,2013-01-09 16:08:00,
2013-01-09 10:13:00,30.1,21.2,30.29,South,187,0.0,4.0,69,0.00,,,0.00,Wunderground v.1.15,2013-01-09 16:13:00,
2013-01-09 10:18:00,30.0,21.4,30.29,South,187,0.0,4.0,70,0.00,,,0.00,Wunderground v.1.15,2013-01-09 16:18:00,
2013-01-09 10:23:00,30.1,21.5,30.29,West,259,1.0,6.0,70,0.00,,,0.00,Wunderground v.1.15,2013-01-09 16:23:00,
2013-01-09 10:28:00,30.3,21.7,30.28,SW,227,0.0,6.0,70,0.00,,,0.00,Wunderground v.1.15,2013-01-09 16:28:00,
2013-01-09 10:33:00,30.4,21.8,30.28,West,262,0.0,6.0,70,0.00,,,0.00,Wunderground v.1.15,2013-01-09 16:33:00,
2013-01-09 10:38:00,30.4,21.8,30.28,West,261,5.0,10.0,70,0.00,,,0.00,Wunderground v.1.15,2013-01-09 16:38:00,
2013-01-09 10:43:00,30.4,22.1,30.30,WSW,250,2.0,4.0,71,0.00,,,0.00,Wunderground v.1.15,2013-01-09 16:43:00,
2013-01-09 10:48:00,30.4,22.1,30.30,WSW,238,0.0,7.0,71,0.00,,,0.00,Wunderground v.1.15,2013-01-09 16:48:00,
2013-01-09 10:53:00,30.4,22.1,30.30,West,266,2.0,6.0,71,0.00,,,0.00,Wunderground v.1.15,2013-01-09 16:53:00,
2013-01-09 10:58:00,30.6,22.6,30.30,WSW,254,2.0,9.0,72,0.00,,,0.00,Wunderground v.1.15,2013-01-09 16:58:00,
2013-01-09 11:03:00,31.0,23.0,30.30,SW,217,0.0,7.0,72,0.00,,,0.00,Wunderground v.1.15,2013-01-09 17:03:00,
2013-01-09 11:08:00,31.0,22.7,30.30,WSW,258,5.0,13.0,71,0.00,,,0.00,Wunderground v.1.15,2013-01-09 17:08:00,
2013-01-09 11:14:00,31.0,22.7,30.31,WSW,237,3.0,11.0,71,0.00,,,0.00,Wunderground v.1.15,2013-01-09 17:14:00,
2013-01-09 11:19:00,31.2,23.2,30.31,SW,219,2.0,11.0,72,0.00,,,0.00,Wunderground v.1.15,2013-01-09 17:19:00,
2013-01-09 11:24:00,31.8,23.5,30.31,SW,227,2.0,6.0,71,0.00,,,0.00,Wunderground v.1.15,2013-01-09 17:24:00,
2013-01-09 11:29:00,32.1,23.8,30.32,WSW,255,3.0,6.0,71,0.00,,,0.00,Wunderground v.1.15,2013-01-09 17:29:00,
2013-01-09 11:34:00,32.1,23.8,30.32,WSW,242,8.0,11.0,71,0.00,,,0.00,Wunderground v.1.15,2013-01-09 17:34:00,
2013-01-09 11:39:00,32.4,24.4,30.32,SSW,202,2.0,11.0,72,0.00,,,0.00,Wunderground v.1.15,2013-01-09 17:39:00,
2013-01-09 11:44:00,32.5,24.1,30.32,SSW,200,4.0,5.0,71,0.00,,,0.00,Wunderground v.1.15,2013-01-09 17:44:00,
2013-01-09 11:49:00,32.8,24.4,30.32,SW,227,1.0,7.0,71,0.00,,,0.00,Wunderground v.1.15,2013-01-09 17:49:00,
2013-01-09 11:54:00,33.2,24.5,30.32,SSW,206,3.0,6.0,70,0.00,,,0.00,Wunderground v.1.15,2013-01-09 17:54:00,
2013-01-09 11:59:00,33.5,24.4,30.33,SSW,213,2.0,6.0,69,0.00,,,0.00,Wunderground v.1.15,2013-01-09 17:59:00,
2013-01-09 12:04:00,33.8,24.0,30.33,SW,216,6.0,10.0,67,0.00,,,0.00,Wunderground v.1.15,2013-01-09 18:04:00,
2013-01-09 12:09:00,33.5,24.1,30.33,SSW,209,7.0,10.0,68,0.00,,,0.00,Wunderground v.1.15,2013-01-09 18:09:00,
2013-01-09 12:14:00,33.2,24.1,30.33,SW,223,2.0,12.0,69,0.00,,,0.00,Wunderground v.1.15,2013-01-09 18:14:00,
2013-01-09 12:19:00,33.2,24.8,30.33,South,186,2.0,12.0,71,0.00,,,0.00,Wunderground v.1.15,2013-01-09 18:19:00,
2013-01-09 12:24:00,33.2,24.8,30.33,SSW,205,2.0,11.0,71,0.00,,,0.00,Wunderground v.1.15,2013-01-09 18:24:00,
2013-01-09 12:29:00,33.7,25.3,30.33,SW,234,1.0,11.0,71,0.00,,,0.00,Wunderground v.1.15,2013-01-09 18:29:00,
2013-01-09 12:34:00,33.8,25.4,30.33,SW,227,3.0,8.0,71,0.00,,,0.00,Wunderground v.1.15,2013-01-09 18:34:00,
2013-01-09 12:39:00,34.0,25.6,30.33,SW,219,1.0,13.0,71,0.00,,,0.00,Wunderground v.1.15,2013-01-09 18:39:00,
2013-01-09 12:41:00,34.1,25.7,30.33,WSW,240,3.0,7.0,71,0.00,,,0.00,Wunderground v.1.15,2013-01-09 18:41:00,
2013-01-09 12:44:00,34.1,25.7,30.33,SW,234,3.0,7.0,71,0.00,,,0.00,Wunderground v.1.15,2013-01-09 18:44:00,
2013-01-09 12:48:00,34.3,25.9,30.33,SW,229,4.0,11.0,71,0.00,,,0.01,Wunderground v.1.15,2013-01-09 18:48:00,
2013-01-09 12:49:00,34.6,26.2,30.33,SW,217,5.0,11.0,71,0.00,,,0.01,Wunderground v.1.15,2013-01-09 18:49:00,
2013-01-09 12:53:00,34.7,26.3,30.33,SSW,202,2.0,11.0,71,0.00,,,0.01,Wunderground v.1.15,2013-01-09 18:53:00,
2013-01-09 12:58:00,35.0,26.5,30.33,SW,221,4.0,11.0,71,0.00,,,0.01,Wunderground v.1.15,2013-01-09 18:58:00,
2013-01-09 13:03:00,35.0,26.2,30.33,WSW,250,5.0,10.0,70,0.00,,,0.01,Wunderground v.1.15,2013-01-09 19:03:00,
2013-01-09 13:08:00,35.3,26.8,30.33,SSW,196,7.0,12.0,71,0.00,,,0.01,Wunderground v.1.15,2013-01-09 19:08:00,
2013-01-09 13:13:00,35.5,26.7,30.33,SSW,198,0.0,6.0,70,0.00,,,0.01,Wunderground v.1.15,2013-01-09 19:13:00,
2013-01-09 13:18:00,35.8,27.0,30.33,SW,216,3.0,9.0,70,0.00,,,0.01,Wunderground v.1.15,2013-01-09 19:18:00,
2013-01-09 13:23:00,36.0,26.8,30.33,SSW,200,4.0,9.0,69,0.00,,,0.01,Wunderground v.1.15,2013-01-09 19:23:00,
2013-01-09 13:28:00,36.2,27.4,30.32,SW,214,2.0,10.0,70,0.00,,,0.01,Wunderground v.1.15,2013-01-09 19:28:00,
2013-01-09 13:33:00,36.3,27.1,30.32,SW,217,2.0,8.0,69,0.00,,,0.01,Wunderground v.1.15,2013-01-09 19:33:00,
2013-01-09 13:38:00,36.6,27.0,30.32,SW,228,4.0,8.0,68,0.00,,,0.01,Wunderground v.1.15,2013-01-09 19:38:00,
2013-01-09 13:43:00,37.0,27.4,30.32,SSW,209,6.0,7.0,68,0.00,,,0.01,Wunderground v.1.15,2013-01-09 19:43:00,
2013-01-09 13:48:00,37.2,27.2,30.32,West,266,4.0,7.0,67,0.00,,,0.01,Wunderground v.1.15,2013-01-09 19:48:00,
2013-01-09 13:54:00,37.3,27.3,30.32,West,279,0.0,5.0,67,0.00,,,0.01,Wunderground v.1.15,2013-01-09 19:54:00,
2013-01-09 13:58:00,37.6,27.3,30.31,WSW,237,0.0,5.0,66,0.00,,,0.01,Wunderground v.1.15,2013-01-09 19:58:00,
2013-01-09 14:04:00,37.9,27.2,30.31,SSW,210,4.0,9.0,65,0.00,,,0.01,Wunderground v.1.15,2013-01-09 20:04:00,
2013-01-09 14:09:00,37.6,27.3,30.31,SSW,192,0.0,15.0,66,0.00,,,0.01,Wunderground v.1.15,2013-01-09 20:09:00,
2013-01-09 14:14:00,37.5,27.5,30.30,WSW,247,1.0,5.0,67,0.00,,,0.01,Wunderground v.1.15,2013-01-09 20:14:00,
2013-01-09 14:19:00,37.6,27.3,30.30,WSW,250,3.0,6.0,66,0.00,,,0.01,Wunderground v.1.15,2013-01-09 20:19:00,
2013-01-09 14:24:00,37.9,27.2,30.30,SSW,198,1.0,5.0,65,0.00,,,0.01,Wunderground v.1.15,2013-01-09 20:24:00,
2013-01-09 14:29:00,38.0,26.9,30.31,SSW,208,2.0,5.0,64,0.00,,,0.01,Wunderground v.1.15,2013-01-09 20:29:00,
2013-01-09 14:34:00,38.2,27.1,30.31,SSW,207,3.0,4.0,64,0.00,,,0.01,Wunderground v.1.15,2013-01-09 20:34:00,
2013-01-09 14:40:00,38.5,27.0,30.31,SSW,207,0.0,1.0,63,0.00,,,0.01,Wunderground v.1.15,2013-01-09 20:40:00,
2013-01-09 14:45:00,38.8,26.9,30.30,SSW,207,0.0,1.0,62,0.00,,,0.01,Wunderground v.1.15,2013-01-09 20:45:00,
2013-01-09 14:50:00,39.1,27.2,30.30,SSW,207,0.0,0.0,62,0.00,,,0.01,Wunderground v.1.15,2013-01-09 20:50:00,
2013-01-09 14:55:00,39.6,27.2,30.30,SSW,207,0.0,0.0,61,0.00,,,0.01,Wunderground v.1.15,2013-01-09 20:55:00,
2013-01-09 15:00:00,39.8,26.6,30.30,SSW,207,0.0,0.0,59,0.00,,,0.01,Wunderground v.1.15,2013-01-09 21:00:00,
2013-01-09 15:05:00,40.2,26.2,30.30,SSW,207,0.0,0.0,57,0.00,,,0.01,Wunderground v.1.15,2013-01-09 21:05:00,
2013-01-09 15:10:00,40.8,26.3,30.30,SSW,207,0.0,0.0,56,0.00,,,0.01,Wunderground v.1.15,2013-01-09 21:10:00,
2013-01-09 15:15:00,39.9,25.5,30.29,SSW,207,3.0,3.0,56,0.00,,,0.01,Wunderground v.1.15,2013-01-09 21:15:00,
2013-01-09 15:20:00,39.5,25.9,30.29,SSW,207,1.0,2.0,58,0.00,,,0.01,Wunderground v.1.15,2013-01-09 21:20:00,
2013-01-09 15:25:00,39.3,25.7,30.29,SSW,207,2.0,2.0,58,0.00,,,0.01,Wunderground v.1.15,2013-01-09 21:25:00,
2013-01-09 15:30:00,39.2,25.2,30.28,SSW,207,2.0,3.0,57,0.00,,,0.01,Wunderground v.1.15,2013-01-09 21:30:00,
2013-01-09 15:35:00,39.2,25.6,30.28,SSW,207,2.0,5.0,58,0.00,,,0.01,Wunderground v.1.15,2013-01-09 21:35:00,
2013-01-09 15:40:00,39.2,25.2,30.28,SSW,209,1.0,2.0,57,0.00,,,0.01,Wunderground v.1.15,2013-01-09 21:40:00,
2013-01-09 15:45:00,39.1,25.1,30.28,SSW,209,1.0,3.0,57,0.00,,,0.01,Wunderground v.1.15,2013-01-09 21:45:00,
2013-01-09 15:50:00,38.9,24.9,30.28,SSW,209,1.0,2.0,57,0.00,,,0.02,Wunderground v.1.15,2013-01-09 21:50:00,
2013-01-09 15:55:00,38.6,25.1,30.28,SSE,168,3.0,5.0,58,0.00,,,0.02,Wunderground v.1.15,2013-01-09 21:55:00,
2013-01-09 16:00:00,38.2,25.5,30.28,South,174,1.0,2.0,60,0.00,,,0.02,Wunderground v.1.15,2013-01-09 22:00:00,
2013-01-09 16:05:00,37.8,25.5,30.28,South,174,0.0,2.0,61,0.00,,,0.02,Wunderground v.1.15,2013-01-09 22:05:00,
2013-01-09 16:10:00,37.5,26.4,30.28,South,174,0.0,1.0,64,0.00,,,0.02,Wunderground v.1.15,2013-01-09 22:10:00,
2013-01-09 16:15:00,37.2,26.5,30.28,South,174,0.0,3.0,65,0.00,,,0.02,Wunderground v.1.15,2013-01-09 22:15:00,
2013-01-09 16:20:00,36.9,26.6,30.28,South,174,0.0,2.0,66,0.00,,,0.02,Wunderground v.1.15,2013-01-09 22:20:00,
2013-01-09 16:25:00,36.5,26.6,30.28,South,174,0.0,3.0,67,0.00,,,0.02,Wunderground v.1.15,2013-01-09 22:25:00,
2013-01-09 16:30:00,36.0,26.5,30.29,South,174,2.0,3.0,68,0.00,,,0.02,Wunderground v.1.15,2013-01-09 22:30:00,
2013-01-09 16:35:00,35.8,26.3,30.29,SSE,158,1.0,3.0,68,0.00,,,0.02,Wunderground v.1.15,2013-01-09 22:35:00,
2013-01-09 16:40:00,35.6,26.1,30.29,SSE,158,0.0,1.0,68,0.00,,,0.02,Wunderground v.1.15,2013-01-09 22:40:00,
2013-01-09 16:45:00,35.3,26.1,30.29,SSE,165,2.0,5.0,69,0.00,,,0.02,Wunderground v.1.15,2013-01-09 22:45:00,
2013-01-09 16:50:00,35.0,26.2,30.29,SSE,161,2.0,4.0,70,0.00,,,0.02,Wunderground v.1.15,2013-01-09 22:50:00,
2013-01-09 16:55:00,34.6,26.2,30.29,SSE,167,2.0,4.0,71,0.00,,,0.02,Wunderground v.1.15,2013-01-09 22:55:00,
2013-01-09 17:00:00,34.1,26.3,30.29,SE,141,0.0,1.0,73,0.00,,,0.02,Wunderground v.1.15,2013-01-09 23:00:00,
2013-01-09 17:05:00,33.8,26.4,30.29,SE,140,2.0,2.0,74,0.00,,,0.02,Wunderground v.1.15,2013-01-09 23:05:00,
2013-01-09 17:10:00,33.5,26.1,30.29,SE,140,0.0,0.0,74,0.00,,,0.02,Wunderground v.1.15,2013-01-09 23:10:00,
2013-01-09 17:15:00,33.4,26.3,30.28,SSE,147,2.0,4.0,75,0.00,,,0.02,Wunderground v.1.15,2013-01-09 23:15:00,
2013-01-09 17:20:00,33.5,26.4,30.28,SSE,150,1.0,4.0,75,0.00,,,0.02,Wunderground v.1.15,2013-01-09 23:20:00,
2013-01-09 17:25:00,33.5,26.4,30.28,South,171,6.0,10.0,75,0.00,,,0.02,Wunderground v.1.15,2013-01-09 23:25:00,
2013-01-09 17:30:00,33.8,26.4,30.28,SSE,155,2.0,2.0,74,0.00,,,0.02,Wunderground v.1.15,2013-01-09 23:30:00,
2013-01-09 17:35:00,34.1,26.3,30.28,South,174,4.0,6.0,73,0.00,,,0.02,Wunderground v.1.15,2013-01-09 23:35:00,
2013-01-09 17:40:00,34.3,26.2,30.28,SSE,159,1.0,4.0,72,0.00,,,0.02,Wunderground v.1.15,2013-01-09 23:40:00,
2013-01-09 17:45:00,34.3,26.2,30.28,ESE,123,1.0,7.0,72,0.00,,,0.02,Wunderground v.1.15,2013-01-09 23:45:00,
2013-01-09 17:50:00,34.1,26.0,30.28,SSE,168,1.0,4.0,72,0.00,,,0.02,Wunderground v.1.15,2013-01-09 23:50:00,
2013-01-09 17:55:00,34.1,26.0,30.28,ESE,114,2.0,7.0,72,0.00,,,0.02,Wunderground v.1.15,2013-01-09 23:55:00,
2013-01-09 18:00:00,34.1,26.0,30.28,South,171,2.0,4.0,72,0.00,,,0.02,Wunderground v.1.15,2013-01-10 00:00:00,
2013-01-09 18:05:00,34.1,26.0,30.28,South,191,6.0,9.0,72,0.00,,,0.02,Wunderground v.1.15,2013-01-10 00:05:00,
2013-01-09 18:10:00,33.8,26.1,30.28,South,173,5.0,6.0,73,0.00,,,0.02,Wunderground v.1.15,2013-01-10 00:10:00,
2013-01-09 18:16:00,33.7,26.3,30.27,South,171,4.0,10.0,74,0.00,,,0.02,Wunderground v.1.15,2013-01-10 00:16:00,
2013-01-09 18:21:00,33.4,26.0,30.27,South,169,4.0,9.0,74,0.00,,,0.02,Wunderground v.1.15,2013-01-10 00:21:00,
2013-01-09 18:26:00,33.5,26.4,30.27,South,176,7.0,12.0,75,0.00,,,0.02,Wunderground v.1.15,2013-01-10 00:26:00,
2013-01-09 18:31:00,33.5,26.4,30.28,South,175,7.0,7.0,75,0.00,,,0.02,Wunderground v.1.15,2013-01-10 00:31:00,
2013-01-09 18:36:00,33.5,26.7,30.28,South,172,3.0,10.0,76,0.00,,,0.02,Wunderground v.1.15,2013-01-10 00:36:00,
2013-01-09 18:41:00,33.5,26.7,30.28,South,171,2.0,9.0,76,0.00,,,0.02,Wunderground v.1.15,2013-01-10 00:41:00,
2013-01-09 18:46:00,33.5,27.1,30.28,South,169,4.0,11.0,77,0.00,,,0.02,Wunderground v.1.15,2013-01-10 00:46:00,
2013-01-09 18:51:00,33.4,27.0,30.28,South,169,1.0,5.0,77,0.00,,,0.02,Wunderground v.1.15,2013-01-10 00:51:00,
2013-01-09 18:56:00,33.2,27.1,30.28,SSE,167,3.0,11.0,78,0.00,,,0.02,Wunderground v.1.15,2013-01-10 00:56:00,
2013-01-09 19:01:00,33.1,27.0,30.29,SSE,167,4.0,10.0,78,0.00,,,0.02,Wunderground v.1.15,2013-01-10 01:01:00,
2013-01-09 19:06:00,32.8,27.0,30.29,South,175,4.0,10.0,79,0.00,,,0.02,Wunderground v.1.15,2013-01-10 01:06:00,
2013-01-09 19:11:00,32.7,26.9,30.29,South,169,3.0,9.0,79,0.00,,,0.02,Wunderground v.1.15,2013-01-10 01:11:00,
2013-01-09 19:16:00,32.4,26.9,30.29,South,175,4.0,10.0,80,0.00,,,0.02,Wunderground v.1.15,2013-01-10 01:16:00,
2013-01-09 19:21:00,32.1,26.9,30.29,SSE,167,7.0,9.0,81,0.00,,,0.02,Wunderground v.1.15,2013-01-10 01:21:00,
2013-01-09 19:26:00,31.8,26.6,30.29,South,180,2.0,9.0,81,0.00,,,0.02,Wunderground v.1.15,2013-01-10 01:26:00,
2013-01-09 19:31:00,31.6,26.7,30.29,SSE,163,5.0,8.0,82,0.00,,,0.02,Wunderground v.1.15,2013-01-10 01:31:00,
2013-01-09 19:36:00,31.6,26.7,30.29,South,170,2.0,9.0,82,0.00,,,0.02,Wunderground v.1.15,2013-01-10 01:36:00,
2013-01-09 19:41:00,31.5,26.6,30.29,SSE,156,4.0,6.0,82,0.00,,,0.02,Wunderground v.1.15,2013-01-10 01:41:00,
2013-01-09 19:46:00,31.3,26.7,30.30,SSE,155,6.0,7.0,83,0.00,,,0.02,Wunderground v.1.15,2013-01-10 01:46:00,
2013-01-09 19:51:00,31.3,27.0,30.30,South,170,6.0,9.0,84,0.00,,,0.02,Wunderground v.1.15,2013-01-10 01:51:00,
2013-01-09 19:56:00,31.5,27.2,30.30,South,169,7.0,10.0,84,0.00,,,0.02,Wunderground v.1.15,2013-01-10 01:56:00,
2013-01-09 20:01:00,31.5,27.2,30.29,South,175,5.0,11.0,84,0.00,,,0.02,Wunderground v.1.15,2013-01-10 02:01:00,
2013-01-09 20:06:00,31.5,27.2,30.29,South,180,6.0,11.0,84,0.00,,,0.02,Wunderground v.1.15,2013-01-10 02:06:00,
2013-01-09 20:11:00,31.5,27.5,30.29,South,169,4.0,8.0,85,0.00,,,0.02,Wunderground v.1.15,2013-01-10 02:11:00,
2013-01-09 20:16:00,31.8,27.8,30.29,South,191,4.0,9.0,85,0.00,,,0.02,Wunderground v.1.15,2013-01-10 02:16:00,
2013-01-09 20:21:00,31.8,27.8,30.29,South,184,2.0,10.0,85,0.00,,,0.02,Wunderground v.1.15,2013-01-10 02:21:00,
2013-01-09 20:26:00,31.8,27.8,30.29,South,169,4.0,10.0,85,0.00,,,0.02,Wunderground v.1.15,2013-01-10 02:26:00,
2013-01-09 20:31:00,31.9,27.9,30.28,South,181,5.0,5.0,85,0.00,,,0.02,Wunderground v.1.15,2013-01-10 02:31:00,
2013-01-09 20:36:00,31.8,28.9,30.28,SSE,157,3.0,7.0,89,0.00,,,0.02,Wunderground v.1.15,2013-01-10 02:36:00,
2013-01-09 20:41:00,31.8,27.8,30.28,SSE,167,4.0,6.0,85,0.00,,,0.02,Wunderground v.1.15,2013-01-10 02:41:00,
2013-01-09 20:46:00,31.8,27.8,30.27,SSW,193,5.0,9.0,85,0.00,,,0.02,Wunderground v.1.15,2013-01-10 02:46:00,
2013-01-09 20:52:00,32.1,28.1,30.27,South,173,7.0,12.0,85,0.00,,,0.02,Wunderground v.1.15,2013-01-10 02:52:00,
2013-01-09 20:56:00,32.2,28.2,30.27,SSE,163,4.0,12.0,85,0.00,,,0.02,Wunderground v.1.15,2013-01-10 02:56:00,
2013-01-09 21:01:00,32.2,28.2,30.28,SSE,167,4.0,11.0,85,0.00,,,0.02,Wunderground v.1.15,2013-01-10 03:01:00,
2013-01-09 21:07:00,32.1,28.1,30.28,SSE,163,10.0,15.0,85,0.00,,,0.02,Wunderground v.1.15,2013-01-10 03:07:00,
2013-01-09 21:12:00,31.9,27.9,30.28,South,190,6.0,9.0,85,0.00,,,0.02,Wunderground v.1.15,2013-01-10 03:12:00,
2013-01-09 21:17:00,31.9,27.9,30.27,South,169,10.0,11.0,85,0.00,,,0.02,Wunderground v.1.15,2013-01-10 03:17:00,
2013-01-09 21:22:00,31.9,27.9,30.27,South,177,5.0,11.0,85,0.00,,,0.02,Wunderground v.1.15,2013-01-10 03:22:00,
2013-01-09 21:27:00,31.9,27.9,30.27,South,178,6.0,12.0,85,0.00,,,0.02,Wunderground v.1.15,2013-01-10 03:27:00,
2013-01-09 21:32:00,31.9,27.9,30.26,South,169,4.0,12.0,85,0.00,,,0.02,Wunderground v.1.15,2013-01-10 03:32:00,
2013-01-09 21:37:00,31.8,27.8,30.26,South,178,8.0,14.0,85,0.00,,,0.02,Wunderground v.1.15,2013-01-10 03:37:00,
2013-01-09 21:42:00,31.8,28.1,30.26,South,169,7.0,10.0,86,0.00,,,0.02,Wunderground v.1.15,2013-01-10 03:42:00,
2013-01-09 21:47:00,31.9,28.2,30.26,South,181,10.0,13.0,86,0.00,,,0.02,Wunderground v.1.15,2013-01-10 03:47:00,
2013-01-09 21:52:00,31.9,28.2,30.26,South,178,6.0,12.0,86,0.00,,,0.02,Wunderground v.1.15,2013-01-10 03:52:00,
2013-01-09 21:57:00,31.9,28.2,30.26,South,175,7.0,12.0,86,0.00,,,0.02,Wunderground v.1.15,2013-01-10 03:57:00,
2013-01-09 22:02:00,31.9,28.2,30.26,SSE,163,8.0,12.0,86,0.00,,,0.02,Wunderground v.1.15,2013-01-10 04:02:00,
2013-01-09 22:07:00,32.1,28.4,30.26,SSE,167,10.0,13.0,86,0.00,,,0.02,Wunderground v.1.15,2013-01-10 04:07:00,
2013-01-09 22:12:00,32.2,28.2,30.26,South,184,9.0,12.0,85,0.00,,,0.02,Wunderground v.1.15,2013-01-10 04:12:00,
2013-01-09 22:17:00,32.4,28.4,30.26,SSE,165,10.0,14.0,85,0.00,,,0.02,Wunderground v.1.15,2013-01-10 04:17:00,
2013-01-09 22:22:00,32.5,28.2,30.26,South,169,6.0,16.0,84,0.00,,,0.02,Wunderground v.1.15,2013-01-10 04:22:00,
2013-01-09 22:27:00,32.5,28.2,30.26,South,186,6.0,16.0,84,0.00,,,0.02,Wunderground v.1.15,2013-01-10 04:27:00,
2013-01-09 22:32:00,32.7,28.4,30.26,South,189,3.0,11.0,84,0.00,,,0.02,Wunderground v.1.15,2013-01-10 04:32:00,
2013-01-09 22:37:00,32.7,28.1,30.26,South,186,6.0,13.0,83,0.00,,,0.02,Wunderground v.1.15,2013-01-10 04:37:00,
2013-01-09 22:42:00,32.7,28.1,30.26,South,185,1.0,11.0,83,0.00,,,0.02,Wunderground v.1.15,2013-01-10 04:42:00,
2013-01-09 22:47:00,32.5,27.9,30.26,South,184,6.0,11.0,83,0.00,,,0.02,Wunderground v.1.15,2013-01-10 04:47:00,
2013-01-09 22:52:00,32.4,27.8,30.26,South,185,5.0,7.0,83,0.00,,,0.02,Wunderground v.1.15,2013-01-10 04:52:00,
2013-01-09 22:57:00,32.4,27.8,30.26,SSW,196,8.0,12.0,83,0.00,,,0.02,Wunderground v.1.15,2013-01-10 04:57:00,
2013-01-09 23:00:00,32.4,27.8,30.26,South,184,4.0,6.0,83,0.00,,,0.02,Wunderground v.1.15,2013-01-10 05:00:00,
2013-01-09 23:05:00,32.4,27.8,30.26,South,188,4.0,13.0,83,0.00,,,0.02,Wunderground v.1.15,2013-01-10 05:05:00,
2013-01-09 23:10:00,32.4,27.8,30.26,SSW,200,6.0,7.0,83,0.00,,,0.02,Wunderground v.1.15,2013-01-10 05:10:00,
2013-01-09 23:15:00,32.4,27.8,30.26,South,171,5.0,13.0,83,0.00,,,0.02,Wunderground v.1.15,2013-01-10 05:15:00,
2013-01-09 23:20:00,32.2,27.3,30.26,SSW,199,6.0,7.0,82,0.00,,,0.02,Wunderground v.1.15,2013-01-10 05:20:00,
2013-01-09 23:25:00,32.2,27.3,30.26,South,178,8.0,11.0,82,0.00,,,0.02,Wunderground v.1.15,2013-01-10 05:25:00,
2013-01-09 23:30:00,32.1,27.2,30.26,SSW,197,10.0,10.0,82,0.00,,,0.02,Wunderground v.1.15,2013-01-10 05:30:00,
2013-01-09 23:35:00,32.2,27.3,30.26,South,170,6.0,12.0,82,0.00,,,0.02,Wunderground v.1.15,2013-01-10 05:35:00,
2013-01-09 23:40:00,32.2,27.0,30.26,South,180,5.0,7.0,81,0.00,,,0.02,Wunderground v.1.15,2013-01-10 05:40:00,
2013-01-09 23:45:00,32.2,27.0,30.26,South,182,9.0,14.0,81,0.00,,,0.02,Wunderground v.1.15,2013-01-10 05:45:00,
2013-01-09 23:50:00,32.1,26.9,30.26,South,182,6.0,9.0,81,0.00,,,0.02,Wunderground v.1.15,2013-01-10 05:50:00,
2013-01-09 23:55:00,32.1,27.2,30.26,South,185,3.0,10.0,82,0.00,,,0.02,Wunderground v.1.15,2013-01-10 05:55:00,
2013-01-09 23:56:00,31.9,27.0,30.26,South,186,4.0,10.0,82,0.00,,,0.02,Wunderground v.1.15,2013-01-10 05:56:00,